Year,Month,Day,Hour,Minute,Value (Times are PST for temperature in C)
2012,10,01,10,30,15.30
2012,10,01,10,31,15.30
2012,10,01,10,32,15.30
2012,10,01,10,33,15.30
2012,10,01,10,34,15.40
2012,10,01,10,35,15.40
2012,10,01,10,36,15.40
2012,10,01,10,37,15.50
2012,10,01,10,38,15.50
2012,10,01,10,39,15.60
2012,10,01,10,40,15.60
2012,10,01,10,41,15.60
2012,10,01,10,42,15.60
2012,10,01,10,43,15.70
2012,10,01,10,44,15.70
2012,10,01,10,45,15.70
2012,10,01,10,46,15.80
2012,10,01,10,47,15.80
2012,10,01,10,48,15.90
2012,10,01,10,49,16.00
2012,10,01,10,50,16.00
2012,10,01,10,51,16.10
2012,10,01,10,52,16.10
2012,10,01,10,53,16.20
2012,10,01,10,54,16.30
2012,10,01,10,55,16.40
2012,10,01,10,56,16.40
2012,10,01,10,57,16.50
2012,10,01,10,58,16.60
2012,10,01,10,59,16.60
2012,10,01,11,00,16.70
2012,10,01,11,01,16.70
2012,10,01,11,02,16.70
2012,10,01,11,03,16.80
2012,10,01,11,04,16.80
2012,10,01,11,05,16.90
2012,10,01,11,06,16.90
2012,10,01,11,07,17.00
2012,10,01,11,08,17.00
2012,10,01,11,09,17.10
2012,10,01,11,10,17.10
2012,10,01,11,11,17.10
2012,10,01,11,12,17.20
2012,10,01,11,13,17.20
2012,10,01,11,14,17.20
2012,10,01,11,15,17.30
2012,10,01,11,16,17.30
2012,10,01,11,17,17.30
2012,10,01,11,18,17.30
2012,10,01,11,19,17.40
2012,10,01,11,20,17.40
2012,10,01,11,21,17.40
2012,10,01,11,22,17.40
2012,10,01,11,23,17.50
2012,10,01,11,24,17.50
2012,10,01,11,25,17.50
2012,10,01,11,26,17.60
2012,10,01,11,27,17.60
2012,10,01,11,28,17.60
2012,10,01,11,29,17.50
2012,10,01,11,30,17.50
2012,10,01,11,31,17.50
2012,10,01,11,32,17.50
2012,10,01,11,33,17.50
2012,10,01,11,34,17.50
2012,10,01,11,35,17.50
2012,10,01,11,36,17.60
2012,10,01,11,37,17.60
2012,10,01,11,38,17.60
2012,10,01,11,39,17.60
2012,10,01,11,40,17.60
2012,10,01,11,41,17.60
2012,10,01,11,42,17.60
2012,10,01,11,43,17.60
2012,10,01,11,44,17.70
2012,10,01,11,45,17.70
2012,10,01,11,46,17.70
2012,10,01,11,47,17.80
2012,10,01,11,48,17.80
2012,10,01,11,49,17.80
2012,10,01,11,50,17.80
2012,10,01,11,51,17.90
2012,10,01,11,52,17.90
2012,10,01,11,53,17.90
2012,10,01,11,54,18.00
2012,10,01,11,55,18.10
2012,10,01,11,56,18.10
2012,10,01,11,57,18.20
2012,10,01,11,58,18.30
2012,10,01,11,59,18.30
2012,10,01,12,00,18.30
2012,10,01,12,01,18.40
2012,10,01,12,02,18.40
2012,10,01,12,03,18.40
2012,10,01,12,04,18.50
2012,10,01,12,05,18.50
2012,10,01,12,06,18.60
2012,10,01,12,07,18.60
2012,10,01,12,08,18.70
2012,10,01,12,09,18.70
2012,10,01,12,10,18.80
2012,10,01,12,11,18.80
2012,10,01,12,12,18.90
2012,10,01,12,13,18.90
2012,10,01,12,14,18.90
2012,10,01,12,15,19.00
2012,10,01,12,16,19.10
2012,10,01,12,17,19.10
2012,10,01,12,18,19.20
2012,10,01,12,19,19.40
2012,10,01,12,20,19.50
2012,10,01,12,21,19.60
2012,10,01,12,22,19.70
2012,10,01,12,23,19.80
2012,10,01,12,24,19.90
2012,10,01,12,25,20.00
2012,10,01,12,26,20.10
2012,10,01,12,27,20.20
2012,10,01,12,28,20.30
2012,10,01,12,29,20.40
2012,10,01,12,30,20.50
2012,10,01,12,31,20.60
2012,10,01,12,32,20.60
2012,10,01,12,33,20.70
2012,10,01,12,34,20.70
2012,10,01,12,35,20.80
2012,10,01,12,36,20.80
2012,10,01,12,37,20.80
2012,10,01,12,38,20.90
2012,10,01,12,39,20.90
2012,10,01,12,40,20.90
2012,10,01,12,41,21.00
2012,10,01,12,42,21.10
2012,10,01,12,43,21.00
2012,10,01,12,44,21.00
2012,10,01,12,45,21.00
2012,10,01,12,46,20.90
2012,10,01,12,47,21.00
2012,10,01,12,48,21.00
2012,10,01,12,49,21.00
2012,10,01,12,50,20.90
2012,10,01,12,51,21.00
2012,10,01,12,52,21.00
2012,10,01,12,53,21.10
2012,10,01,12,54,21.10
2012,10,01,12,55,21.20
2012,10,01,12,56,21.20
2012,10,01,12,57,21.30
2012,10,01,12,58,21.30
2012,10,01,12,59,21.40
2012,10,01,13,00,21.50
2012,10,01,13,01,21.60
2012,10,01,13,02,21.60
2012,10,01,13,03,21.70
2012,10,01,13,04,21.70
2012,10,01,13,05,21.80
2012,10,01,13,06,21.80
2012,10,01,13,07,21.80
2012,10,01,13,08,21.90
2012,10,01,13,09,21.90
2012,10,01,13,10,21.90
2012,10,01,13,11,21.80
2012,10,01,13,12,21.80
2012,10,01,13,13,21.70
2012,10,01,13,14,21.60
2012,10,01,13,15,21.50
2012,10,01,13,16,21.40
2012,10,01,13,17,21.40
2012,10,01,13,18,21.40
2012,10,01,13,19,21.40
2012,10,01,13,20,21.50
2012,10,01,13,21,21.60
2012,10,01,13,22,21.70
2012,10,01,13,23,21.80
2012,10,01,13,24,21.80
2012,10,01,13,25,21.80
2012,10,01,13,26,21.80
2012,10,01,13,27,21.80
2012,10,01,13,28,21.90
2012,10,01,13,29,22.00
2012,10,01,13,30,22.10
2012,10,01,13,31,22.20
2012,10,01,13,32,22.30
2012,10,01,13,33,22.30
2012,10,01,13,34,22.30
2012,10,01,13,35,22.40
2012,10,01,13,36,22.40
2012,10,01,13,37,22.40
2012,10,01,13,38,22.50
2012,10,01,13,39,22.50
2012,10,01,13,40,22.50
2012,10,01,13,41,22.50
2012,10,01,13,42,22.50
2012,10,01,13,43,22.50
2012,10,01,13,44,22.50
2012,10,01,13,45,22.60
2012,10,01,13,46,22.60
2012,10,01,13,47,22.70
2012,10,01,13,48,22.80
2012,10,01,13,49,22.80
2012,10,01,13,50,22.90
2012,10,01,13,51,23.00
2012,10,01,13,52,23.10
2012,10,01,13,53,23.10
2012,10,01,13,54,23.10
2012,10,01,13,55,23.10
2012,10,01,13,56,23.10
2012,10,01,13,57,23.10
2012,10,01,13,58,23.10
2012,10,01,13,59,23.10
2012,10,01,14,00,23.10
2012,10,01,14,01,23.10
2012,10,01,14,02,23.10
2012,10,01,14,03,23.10
2012,10,01,14,04,23.10
2012,10,01,14,05,23.20
2012,10,01,14,06,23.20
2012,10,01,14,07,23.30
2012,10,01,14,08,23.40
2012,10,01,14,09,23.40
2012,10,01,14,10,23.40
2012,10,01,14,11,23.50
2012,10,01,14,12,23.50
2012,10,01,14,13,23.50
2012,10,01,14,14,23.50
2012,10,01,14,15,23.40
2012,10,01,14,16,23.40
2012,10,01,14,17,23.40
2012,10,01,14,18,23.40
2012,10,01,14,19,23.30
2012,10,01,14,20,23.20
2012,10,01,14,21,23.20
2012,10,01,14,22,23.10
2012,10,01,14,23,23.10
2012,10,01,14,24,23.00
2012,10,01,14,25,22.90
2012,10,01,14,26,22.80
2012,10,01,14,27,22.80
2012,10,01,14,28,22.70
2012,10,01,14,29,22.70
2012,10,01,14,30,22.70
2012,10,01,14,31,22.60
2012,10,01,14,32,22.60
2012,10,01,14,33,22.60
2012,10,01,14,34,22.50
2012,10,01,14,35,22.50
2012,10,01,14,36,22.40
2012,10,01,14,37,22.40
2012,10,01,14,38,22.30
2012,10,01,14,39,22.20
2012,10,01,14,40,22.20
2012,10,01,14,41,22.10
2012,10,01,14,42,22.10
2012,10,01,14,43,22.10
2012,10,01,14,44,22.20
2012,10,01,14,45,22.20
2012,10,01,14,46,22.20
2012,10,01,14,47,22.20
2012,10,01,14,48,22.20
2012,10,01,14,49,22.30
2012,10,01,14,50,22.30
2012,10,01,14,51,22.40
2012,10,01,14,52,22.50
2012,10,01,14,53,22.50
2012,10,01,14,54,22.60
2012,10,01,14,55,22.60
2012,10,01,14,56,22.50
2012,10,01,14,57,22.50
2012,10,01,14,58,22.50
2012,10,01,14,59,22.50
2012,10,01,15,00,22.50
2012,10,01,15,01,22.40
2012,10,01,15,02,22.30
2012,10,01,15,03,22.30
2012,10,01,15,04,22.30
2012,10,01,15,05,22.20
2012,10,01,15,06,22.20
2012,10,01,15,07,22.20
2012,10,01,15,08,22.20
2012,10,01,15,09,22.20
2012,10,01,15,10,22.10
2012,10,01,15,11,22.10
2012,10,01,15,12,22.00
2012,10,01,15,13,22.00
2012,10,01,15,14,22.00
2012,10,01,15,15,21.90
2012,10,01,15,16,21.90
2012,10,01,15,17,21.90
2012,10,01,15,18,21.90
2012,10,01,15,19,21.90
2012,10,01,15,20,21.90
2012,10,01,15,21,21.90
2012,10,01,15,22,21.90
2012,10,01,15,23,22.00
2012,10,01,15,24,22.00
2012,10,01,15,25,22.00
2012,10,01,15,26,22.00
2012,10,01,15,27,22.00
2012,10,01,15,28,21.90
2012,10,01,15,29,21.90
2012,10,01,15,30,21.90
2012,10,01,15,31,21.80
2012,10,01,15,32,21.80
2012,10,01,15,33,21.80
2012,10,01,15,34,21.80
2012,10,01,15,35,21.70
2012,10,01,15,36,21.70
2012,10,01,15,37,21.70
2012,10,01,15,38,21.70
2012,10,01,15,39,21.70
2012,10,01,15,40,21.70
2012,10,01,15,41,21.70
2012,10,01,15,42,21.70
2012,10,01,15,43,21.70
2012,10,01,15,44,21.70
2012,10,01,15,45,21.70
2012,10,01,15,46,21.70
2012,10,01,15,47,21.70
2012,10,01,15,48,21.70
2012,10,01,15,49,21.70
2012,10,01,15,50,21.70
2012,10,01,15,51,21.70
2012,10,01,15,52,21.70
2012,10,01,15,53,21.70
2012,10,01,15,54,21.70
2012,10,01,15,55,21.70
2012,10,01,15,56,21.70
2012,10,01,15,57,21.70
2012,10,01,15,58,21.70
2012,10,01,15,59,21.70
2012,10,01,16,00,21.70
2012,10,01,16,01,21.70
2012,10,01,16,02,21.70
2012,10,01,16,03,21.70
2012,10,01,16,04,21.70
2012,10,01,16,05,21.70
2012,10,01,16,06,21.70
2012,10,01,16,07,21.70
2012,10,01,16,08,21.70
2012,10,01,16,09,21.60
2012,10,01,16,10,21.60
2012,10,01,16,11,21.60
2012,10,01,16,12,21.60
2012,10,01,16,13,21.50
2012,10,01,16,14,21.50
2012,10,01,16,15,21.40
2012,10,01,16,16,21.40
2012,10,01,16,17,21.40
2012,10,01,16,18,21.40
2012,10,01,16,19,21.30
2012,10,01,16,20,21.30
2012,10,01,16,21,21.30
2012,10,01,16,22,21.20
2012,10,01,16,23,21.20
2012,10,01,16,24,21.10
2012,10,01,16,25,21.10
2012,10,01,16,26,21.10
2012,10,01,16,27,21.00
2012,10,01,16,28,21.00
2012,10,01,16,29,21.00
2012,10,01,16,30,20.90
2012,10,01,16,31,20.90
2012,10,01,16,32,20.80
2012,10,01,16,33,20.80
2012,10,01,16,34,20.70
2012,10,01,16,35,20.70
2012,10,01,16,36,20.70
2012,10,01,16,37,20.60
2012,10,01,16,38,20.60
2012,10,01,16,39,20.60
2012,10,01,16,40,20.50
2012,10,01,16,41,20.40
2012,10,01,16,42,20.40
2012,10,01,16,43,20.30
2012,10,01,16,44,20.30
2012,10,01,16,45,20.30
2012,10,01,16,46,20.20
2012,10,01,16,47,20.20
2012,10,01,16,48,20.20
2012,10,01,16,49,20.20
2012,10,01,16,50,20.20
2012,10,01,16,51,20.20
2012,10,01,16,52,20.20
2012,10,01,16,53,20.20
2012,10,01,16,54,20.10
2012,10,01,16,55,20.10
2012,10,01,16,56,20.10
2012,10,01,16,57,20.00
2012,10,01,16,58,20.00
2012,10,01,16,59,20.00
2012,10,01,17,00,20.00
2012,10,01,17,01,20.00
2012,10,01,17,02,20.00
2012,10,01,17,03,20.00
2012,10,01,17,04,20.00
2012,10,01,17,05,20.00
2012,10,01,17,06,20.00
2012,10,01,17,07,19.90
2012,10,01,17,08,19.90
2012,10,01,17,09,19.90
2012,10,01,17,10,19.90
2012,10,01,17,11,19.90
2012,10,01,17,12,19.80
2012,10,01,17,13,19.80
2012,10,01,17,14,19.80
2012,10,01,17,15,19.80
2012,10,01,17,16,19.80
2012,10,01,17,17,19.80
2012,10,01,17,18,19.80
2012,10,01,17,19,19.80
2012,10,01,17,20,19.80
2012,10,01,17,21,19.70
2012,10,01,17,22,19.70
2012,10,01,17,23,19.70
2012,10,01,17,24,19.70
2012,10,01,17,25,19.70
2012,10,01,17,26,19.60
2012,10,01,17,27,19.60
2012,10,01,17,28,19.60
2012,10,01,17,29,19.50
2012,10,01,17,30,19.50
2012,10,01,17,31,19.50
2012,10,01,17,32,19.40
2012,10,01,17,33,19.40
2012,10,01,17,34,19.30
2012,10,01,17,35,19.30
2012,10,01,17,36,19.30
2012,10,01,17,37,19.30
2012,10,01,17,38,19.30
2012,10,01,17,39,19.20
2012,10,01,17,40,19.20
2012,10,01,17,41,19.20
2012,10,01,17,42,19.10
2012,10,01,17,43,19.10
2012,10,01,17,44,19.10
2012,10,01,17,45,19.00
2012,10,01,17,46,19.00
2012,10,01,17,47,18.90
2012,10,01,17,48,18.90
2012,10,01,17,49,18.90
2012,10,01,17,50,18.90
2012,10,01,17,51,18.80
2012,10,01,17,52,18.80
2012,10,01,17,53,18.80
2012,10,01,17,54,18.80
2012,10,01,17,55,18.70
2012,10,01,17,56,18.70
2012,10,01,17,57,18.70
2012,10,01,17,58,18.70
2012,10,01,17,59,18.60
2012,10,01,18,00,18.60
2012,10,01,18,01,18.60
2012,10,01,18,02,18.50
2012,10,01,18,03,18.50
2012,10,01,18,04,18.40
2012,10,01,18,05,18.40
2012,10,01,18,06,18.40
2012,10,01,18,07,18.30
2012,10,01,18,08,18.20
2012,10,01,18,09,18.20
2012,10,01,18,10,18.10
2012,10,01,18,11,18.10
2012,10,01,18,12,18.00
2012,10,01,18,13,17.90
2012,10,01,18,14,17.90
2012,10,01,18,15,17.80
2012,10,01,18,16,17.70
2012,10,01,18,17,17.60
2012,10,01,18,18,17.50
2012,10,01,18,19,17.50
2012,10,01,18,20,17.40
2012,10,01,18,21,17.30
2012,10,01,18,22,17.20
2012,10,01,18,23,17.20
2012,10,01,18,24,17.10
2012,10,01,18,25,17.00
2012,10,01,18,26,16.90
2012,10,01,18,27,16.90
2012,10,01,18,28,16.80
2012,10,01,18,29,16.80
2012,10,01,18,30,16.70
2012,10,01,18,31,16.70
2012,10,01,18,32,16.70
2012,10,01,18,33,16.60
2012,10,01,18,34,16.60
2012,10,01,18,35,16.60
2012,10,01,18,36,16.50
2012,10,01,18,37,16.50
2012,10,01,18,38,16.40
2012,10,01,18,39,16.40
2012,10,01,18,40,16.40
2012,10,01,18,41,16.40
2012,10,01,18,42,16.40
2012,10,01,18,43,16.40
2012,10,01,18,44,16.40
2012,10,01,18,45,16.40
2012,10,01,18,46,16.40
2012,10,01,18,47,16.40
2012,10,01,18,48,16.40
2012,10,01,18,49,16.40
2012,10,01,18,50,16.40
2012,10,01,18,51,16.40
2012,10,01,18,52,16.40
